sat.trackr.live / text

‹ back to catalog

STARLINK-2524

NORAD 48304 · 2021-036AE

PAYLOAD ACTIVE UNKNOWN

§ Identity

Operator
Country
US
Launch date
2021-04-29
Launch site
AFETR
Launch vehicle
Mass (kg)
RCS (m²)

Purposes: comms

External: N2YO · Heavens-Above · Gunter

§ Orbital elements

Epoch: 2026-05-25T03:54:59.533920Z

Period
94.01 min
Inclination
53.1595°
Eccentricity
0.0001132
Mean motion
15.31703800 rev/d
Perigee alt
470.0 km
Apogee alt
471.5 km
Semi-major
6,848.9 km
B*
-2.7173e-6
RAAN
103.2226°
Arg perigee
87.6200°
Mean anomaly
272.4931°
Rev number
27,977

§ Raw data

STARLINK-25241 48304U 21036AE  26145.16318905 -.00000449  00000+0 -27173-5 0  99952 48304  53.1595 103.2226 0001132  87.6200 272.4931 15.31703800279773

JSON: /api/v1/satellites/48304 · /tle

For live sub-satellite position, see the globe view (requires WebGL).

§ Visibility from observer

Set your observer location to see the next 7 days of passes ≥ 10°. The values pass through the URL so the page stays shareable.

No JS? Fill the form by hand. The geolocation button needs JavaScript.